Retour au catalogue

GEESAT 6-02

ActifNavigationLEO
NORAD 65714·PAYLOAD·🇨🇳 China

Lancé Sep 24, 2025 depuis Yellow Sea Launch Area

Loading…

Prochains Passages (prochaines 24 heures)

TLE

FraisSource: Space-Track

Époque: Sep 14, 2026, 00:54 UTC

1 65714U 25214C   26257.03796230  .00001196  00000-0  17076-3 0  9990
2 65714  49.9834 256.7425 0009932 198.1382 161.9203 14.83601167 52699

Suivez GEESAT 6-02 en temps réel avec AllMySat

Download on the App Store